COSMOS 1275 DEB

Satellite information

Favourite Embed

Satellite Type and Status

DEBRISIN ORBIT

Key statistics

Satellite COSMOS 1275 DEB at a glance.

Uptime

16263

Days in orbit

Revolutions

≈ 14.7

Per day

Orbit

LEO

Low Earth Orbit

Inclination

82.9

Latest

Satellite identification and parameters

Extended collection of information and parameters for COSMOS 1275 DEB.

Object identification

Identified? True

Debris? True

Object name: COSMOS 1275 DEB

International designator: 1981-053BQ

Object number (NORAD): 12723

Object ID (CCSDS): 12723

Country: COMMONWEALTH OF INDEPENDENT STATES (CIS)

Current information (Y/N): Y

RCS size: SMALL

Orbital parameters

Period: 97.799 minutes

Inclination: 82.9362 deg

SMA: 7031.518 km

Apoapsis: 656.762 km

Periapsis: 650.003 km

RAAN: 0.5482 deg

Eccentricy: 0.00048059

Argument of periapsis: 106.9946 deg

Mean anomaly: 253.1791 deg

Mean motion: 14.7241134 rev/day

Mean motion (dot): 0.00027267 rev/day2

B* drag term: 0.0042871011 1/REarth

Two-line elements (TLE)

Creation date: Dec. 12, 2025, 10:14 a.m.

Reference frame: TEME

Reference center: EARTH

Epoch: Dec. 12, 2025, 1:26 a.m. UTC

TLE line 0: 0 COSMOS 1275 DEB

TLE line 1: 1 12723U 81053BQ 25346.05978842 .00027267 00000-0 42871-2 0 9993

TLE line 2: 2 12723 82.9362 0.5482 0004806 106.9946 253.1791 14.72411340284154

Live tracking on map

Real-time ground track for satellite COSMOS 1275 DEB.

In-orbit conjunctions

A list of the most updated potential collisions computed for object COSMOS 1275 DEB.

Target Orbit TCA Probability of collision Miss distance Type
FENGYUN 1C DEB SSO 2024-10-17 16:25:57 0.0001528328 119.0 (m) DEBRIS
NOAA 17 DEB SSO 2024-09-25 07:59:23 0.0001037878 408.0 (m) DEBRIS

Associated space launch

Navigation satellite providing location information for the Tsiklon-B navigation system

COSMOS 1275 DEB was lifted into orbit during the mission ‘Kosmos-3M | Parus 27’, on board a Kosmos-3M space rocket.

The launch took place on June 4, 1981, 3:41 p.m. from 132/2.

For more information about the launch, click the button.

Launch to space Kosmos-3M | Parus 27
Kosmos-3M | Parus 27

Agency: N/A

Status: Launch Successful

Launch date: June 4, 1981, 3:41 p.m. UTC

Rocket: Kosmos-3M

Launch pad: 132/2

Location: Plesetsk Cosmodrome, Russian Federation

...

Latest news about this satellite

There are no fresh news available about this satellite. Check back as we update our databases every day.


Newsletter sign-up

Weekly statistics, charts and insights to help you stay on top of the space industry.